TimePST,TemperatureF,Dew PointF,Humidity,Sea Level PressureIn,VisibilityMPH,Wind Direction,Wind SpeedMPH,Gust SpeedMPH,PrecipitationIn,Events,Conditions,WindDirDegrees,DateUTC
12:54 AM,37.0,32.0,82,30.11,10.0,Calm,Calm,-,N/A,,Clear,0,2012-12-31 08:54:00
1:54 AM,36.0,32.0,86,30.12,10.0,Calm,Calm,-,N/A,,Clear,0,2012-12-31 09:54:00
2:54 AM,35.1,28.9,78,30.13,10.0,Calm,Calm,-,N/A,,Clear,0,2012-12-31 10:54:00
3:54 AM,33.1,28.0,82,30.14,10.0,Calm,Calm,-,N/A,,Clear,0,2012-12-31 11:54:00
4:54 AM,33.1,28.0,82,30.14,10.0,Calm,Calm,-,N/A,,Clear,0,2012-12-31 12:54:00
5:54 AM,32.0,27.0,82,30.16,10.0,Calm,Calm,-,N/A,,Clear,0,2012-12-31 13:54:00
6:54 AM,32.0,27.0,82,30.19,10.0,Calm,Calm,-,N/A,,Clear,0,2012-12-31 14:54:00
7:54 AM,36.0,32.0,86,30.20,10.0,Calm,Calm,-,N/A,,Clear,0,2012-12-31 15:54:00
8:54 AM,43.0,36.0,76,30.21,10.0,Calm,Calm,-,N/A,,Clear,0,2012-12-31 16:54:00
9:54 AM,51.1,36.0,56,30.23,10.0,South,3.5,-,N/A,,Clear,180,2012-12-31 17:54:00
10:54 AM,57.0,30.9,37,30.23,10.0,East,4.6,-,N/A,,Clear,90,2012-12-31 18:54:00
11:54 AM,59.0,27.0,29,30.19,10.0,Calm,Calm,-,N/A,,Clear,0,2012-12-31 19:54:00
12:54 PM,60.1,33.1,36,30.17,10.0,SW,8.1,-,N/A,,Clear,230,2012-12-31 20:54:00
1:54 PM,59.0,36.0,42,30.17,10.0,WSW,8.1,-,N/A,,Clear,240,2012-12-31 21:54:00
2:54 PM,57.9,35.1,42,30.17,10.0,WSW,8.1,-,N/A,,Clear,250,2012-12-31 22:54:00
3:54 PM,57.0,37.0,47,30.19,10.0,West,6.9,-,N/A,,Clear,270,2012-12-31 23:54:00
4:54 PM,54.0,37.9,55,30.20,10.0,Calm,Calm,-,N/A,,Clear,0,2013-01-01 00:54:00
5:54 PM,52.0,37.0,57,30.22,10.0,Calm,Calm,-,N/A,,Clear,0,2013-01-01 01:54:00
6:54 PM,46.9,37.0,68,30.22,10.0,NE,4.6,-,N/A,,Clear,50,2013-01-01 02:54:00
7:54 PM,43.0,35.1,74,30.24,10.0,Calm,Calm,-,N/A,,Clear,0,2013-01-01 03:54:00
8:54 PM,41.0,34.0,76,30.25,10.0,ENE,5.8,-,N/A,,Clear,60,2013-01-01 04:54:00
9:54 PM,37.9,32.0,79,30.27,10.0,ENE,3.5,-,N/A,,Clear,60,2013-01-01 05:54:00
10:54 PM,39.0,33.1,79,30.26,10.0,Calm,Calm,-,N/A,,Clear,0,2013-01-01 06:54:00
11:54 PM,36.0,30.9,82,30.25,10.0,Calm,Calm,-,N/A,,Clear,0,2013-01-01 07:54:00